Flag for U.S.A. Weather past 2 weeks in Irving, Texas, U.S.A.

Now
71 °F

Overcast.


Feels Like: 71 °F
Forecast: 70 / 83 °F
Wind: 12 mph from Northeast

Location: Dallas / Fort Worth International Airport

Current Time: Aug 1, 2014 at 1:28:12 AM

Latest Report: Aug 1, 2014 at 12:53 AM


Visibility: 10 mi

Pressure: 30.00 "Hg

Humidity: 81%

Dew point: 65 °F

Location of IrvingLocation

Historic Weather in Irving — Graph

°F

Irving temperature yesterday

Maximum temperature yesterday: 80 °F (at 12:53 AM)
Minimum temperature yesterday: 71 °F (at 9:53 PM)
Average temperature yesterday: 76 °F

Past Weeks' High & Low Weather Summary

 TemperatureHumidityPressure
High102 °F (Jul 27, 4:53 PM)94% (Jul 18, 5:53 AM)30.13 "Hg (Jul 18, 5:53 AM)
Low65 °F (Jul 18, 5:53 AM)28% (Jul 27, 4:53 PM)29.84 "Hg (Jul 17, 5:53 AM)
Average82 °F63%29.98 "Hg
* Reported Jul 16 11:53 PM — Jul 31 11:53 PM, Irving, Weather by CustomWeather, © 2014

Note: Actual official high and low records may vary slightly from our data, if they occured in-between our weather recording intervals... More about our weather records

Advertising

Irving weather history for previous 24 hours

 ConditionsComfort  
Time TempWeatherWind HumidityBarometerVisibility
11:53 PM
Jul 31
72 °FOvercast.9 mph78%30.02 "Hg10 mi
10:53 PM71 °FMostly cloudy.14 mph81%30.00 "Hg10 mi
9:53 PM71 °FMostly cloudy.14 mph81%29.98 "Hg10 mi
8:53 PM72 °FMostly cloudy.15 mph78%29.96 "Hg10 mi
7:53 PM73 °FMostly cloudy.16 mph79%29.97 "Hg10 mi
6:53 PM73 °FMostly cloudy.16 mph81%29.97 "Hg10 mi
6:03 PM73 °FMostly cloudy.18 mph81%29.99 "Hg10 mi
5:53 PM74 °FMostly cloudy.15 mph79%29.97 "Hg10 mi
4:53 PM77 °FMostly cloudy.15 mph69%29.96 "Hg10 mi
3:53 PM78 °FMostly cloudy.14 mph66%29.96 "Hg10 mi
2:53 PM77 °FMostly cloudy.18 mph71%29.96 "Hg10 mi
1:53 PM76 °FMostly cloudy.20 mph74%29.97 "Hg10 mi
12:53 PM75 °FLow clouds.16 mph79%29.96 "Hg10 mi
11:53 AM75 °FDrizzle. Fog.15 mph88%29.95 "Hg5 mi
10:53 AM80 °FMostly cloudy.12 mph67%29.93 "Hg10 mi
9:53 AM80 °FCloudy.8 mph62%29.93 "Hg10 mi
8:53 AM79 °FBroken clouds.8 mph67%29.93 "Hg10 mi
7:53 AM78 °FBroken clouds.12 mph71%29.91 "Hg10 mi
6:53 AM77 °FMostly cloudy.10 mph79%29.89 "Hg10 mi
5:53 AM76 °FOvercast.12 mph82%29.89 "Hg10 mi
4:53 AM75 °FPartly cloudy.8 mph85%29.90 "Hg10 mi
3:53 AM76 °FOvercast.7 mph82%29.92 "Hg10 mi
2:53 AM76 °FOvercast.5 mph80%29.90 "Hg10 mi
1:59 AM75 °FMostly cloudy.12 mph82%29.94 "Hg10 mi
Weather by CustomWeather, © 2014

See weather overviewHow to use our weather pages